Regional Weather Roundup
Issued by NWS

Home | Current Version | Previous Version | Graphics & Text | Print | Product List | Glossary On
Versions: 1 2 3 4 5 6 7 8 9 10 11 12 13 14 15 16 17 18 19 20 21 22 23 24 25 26 27 28 29 30 31 32 33 34 35 36 37 38 39 40 41 42 43 44 45 46 47 48 49 50
243
ASUS43 KOAX 211110
RWRNE

WEATHER ROUNDUP FOR NEBRASKA
NATIONAL WEATHER SERVICE OMAHA NE
600 AM CDT MON AUG 21 2017

NOTES: SATELLITE DATA IS BEING USED TO AUGMENT CLOUD COVER ABOVE
       12000 FEET.
       "FAIR" INDICATES FEW OR NO CLOUDS BELOW 12,000 FEET WITH NO
       SIGNIFICANT WEATHER AND/OR OBSTRUCTIONS TO VISIBILITY.


NEZ001>004-019>022-054>056-211200-
NEBRASKA PANHANDLE

CITY           SKY/WX    TMP DP  RH WIND       PRES   REMARKS
SCOTTSBLUFF    PTCLDY    63  61  93 E3        30.01S FOG
ALLIANCE       CLOUDY    67  67 100 S6        30.00S FOG
CHADRON        CLOUDY    68  64  87 S6        29.95S
GORDON         CLOUDY    69  68  96 S5        29.97F FOG
KIMBALL        CLOUDY    58  58 100 W6        30.07S
SIDNEY         FOG       61  61 100 NW3       30.03S VSB 1/4
$$

NEZ057>060-069>072-079>082-211200-
SOUTHWEST NEBRASKA

CITY           SKY/WX    TMP DP  RH WIND       PRES   REMARKS
NORTH PLATTE   FOG       71  71 100 E3        29.94S VSB 1/4
IMPERIAL       CLEAR     62  60  93 CALM      29.96F
LEXINGTON      PTCLDY    65  64  96 CALM      29.95R FOG
MCCOOK         PTCLDY    68  64  87 SW6       29.94R
OGALLALA       FOG       70  69  96 E3        29.97S VSB 1/2
$$

NEZ005>010-023>029-035>040-094-211200-
NORTH CENTRAL NEBRASKA

CITY           SKY/WX    TMP DP  RH WIND       PRES   REMARKS
VALENTINE      FOG       65  62  90 E5        29.95F VSB 1/2
AINSWORTH      FOG       67  67 100 E7        29.97S VSB 1/2
BROKEN BOW     FOG       70  69  97 CALM      29.94R VSB 1/2
O`NEILL        CLOUDY    69  69 100 E7        29.97R FOG
ORD            FOG       69  68  96 E7        29.93R VSB 1/4
THEDFORD       FOG       70  69  97 N3        29.96S VSB 1/2
$$

NEZ041-046>049-061>064-073>077-083>087-211200-
SOUTH CENTRAL NEBRASKA

CITY           SKY/WX    TMP DP  RH WIND       PRES   REMARKS
GRAND ISLAND   CLEAR     70  69  97 S6        29.94R
AURORA         CLEAR     71  69  94 S6        29.94R
HASTINGS       CLOUDY    72  67  84 S7        29.96R
HEBRON         PTCLDY    76  68  75 S9        29.95S
HOLDREGE       CLOUDY    70  64  81 S7        29.95R
KEARNEY        CLEAR     67  65  93 S7        29.95R
YORK           CLEAR     72  70  94 CALM      29.96R
$$

NEZ011>018-030>034-042>045-211200-
NORTHEAST NEBRASKA

CITY           SKY/WX    TMP DP  RH WIND       PRES   REMARKS
NORFOLK        CLEAR     67  64  90 SE16      29.96R
ALBION         CLOUDY    69  68  98 E5        29.96R FOG
BLAIR          CLOUDY    71  64  78 E14       30.02R
COLUMBUS       CLOUDY    70  67  90 E9        29.98R
FREMONT        MOCLDY    70  63  77 E12G20    30.00S
TEKAMAH        CLOUDY    70  62  76 SE7       30.01R
WAYNE          CLOUDY    69  66  89 SE7       29.98S
$$

NEZ050>053-065>068-078-088>093-211200-
SOUTHEAST NEBRASKA

CITY           SKY/WX    TMP DP  RH WIND       PRES   REMARKS
LINCOLN        MOCLDY    72  66  81 E16       29.99R
OMAHA EPPLEY   LGT RAIN  72  62  71 E28G36    30.02R
BEATRICE       PTCLDY    78  70  78 S3        29.97R
FALLS CITY     CLEAR     73  72  96 E6        29.99R
NEBRASKA CITY  PTCLDY    69  69 100 NE12      30.03R
PLATTSMOUTH    CLOUDY    69  65  90 E14G21    30.04R
$$

NEZ044-045-051>053-067-211200-
OMAHA AREA

CITY           SKY/WX    TMP DP  RH WIND       PRES   REMARKS
OMAHA EPPLEY   LGT RAIN  72  62  71 E28G36    30.02R
BLAIR          CLOUDY    71  64  78 E14       30.02R
FREMONT        MOCLDY    70  63  77 E12G20    30.00S
MILLARD        CLOUDY    73  65  75 SE9G17    30.01S
OFFUTT AFB     CLOUDY    69  66  89 E15       30.02R
PLATTSMOUTH    CLOUDY    69  65  90 E14G21    30.04R
WAHOO          FAIR      70  65  84 SE12      30.00S
$$




USA.gov is the U.S. government's official web portal to all federal, state and local government web resources and services.